GW3385 Weather Reports


time (UTC)temp
C
wind
direction
speed
KPH
gust
KPH
rain 1hr
cm
rain 24hr
cm
rain mn
cm
humidity
%
barometer
mb
20260906095556 22 0 0.0 0.0 0.00 0.00 0.00 54 1011.2
20260906095056 22 0 0.0 0.0 0.00 0.00 0.00 53 1011.3
20260906094557 22 0 0.0 0.0 0.00 0.00 0.00 51 1011.3
20260906094055 22 0 0.0 1.6 0.00 0.00 0.00 50 1011.2
20260906093556 22 0 0.0 1.6 0.00 0.00 0.00 51 1011.3
20260906093056 22 0 0.0 3.2 0.00 0.00 0.00 50 1011.2
20260906092555 22 0 0.0 3.2 0.00 0.00 0.00 50 1011.2
20260906092056 22 352 0.0 3.2 0.00 0.00 0.00 49 1011.2
20260906091614 22 0 0.0 4.8 0.00 0.00 0.00 50 1011.2
20260906091055 22 0 0.0 4.8 0.00 0.00 0.00 50 1011.2
20260906090558 22 345 0.0 4.8 0.00 0.00 0.00 50 1011.2
20260906090111 22 360 0.0 4.8 0.00 0.00 0.00 50 1011.3
20260906085554 22 0 1.6 4.8 0.00 0.00 0.00 50 1011.2
20260906085056 22 0 1.6 4.8 0.00 0.00 0.00 50 1011.3
20260906084558 22 0 1.6 8.0 0.00 0.00 0.00 51 1011.4
20260906084055 22 0 1.6 8.0 0.00 0.00 0.00 52 1011.4
20260906083556 22 350 4.8 8.0 0.00 0.00 0.00 52 1011.3
20260906083103 22 348 1.6 6.4 0.00 0.00 0.00 52 1011.4
20260906082555 22 323 1.6 6.4 0.00 0.00 0.00 52 1011.5
20260906082055 22 0 0.0 6.4 0.00 0.00 0.00 52 1011.6
20260906081559 22 360 1.6 6.4 0.00 0.00 0.00 52 1011.6
20260906081056 22 0 0.0 3.2 0.00 0.00 0.00 54 1011.6
20260906080555 22 0 0.0 3.2 0.00 0.00 0.00 54 1011.6
20260906080111 22 0 0.0 3.2 0.00 0.00 0.00 54 1011.6
20260906075555 22 0 0.0 3.2 0.00 0.00 0.00 54 1011.6
20260906075055 22 0 0.0 3.2 0.00 0.00 0.00 55 1011.6
20260906074559 22 0 0.0 3.2 0.00 0.00 0.00 55 1011.6
20260906074054 22 338 0.0 3.2 0.00 0.00 0.00 55 1011.6
20260906073556 22 0 0.0 3.2 0.00 0.00 0.00 55 1011.7
20260906073103 22 352 0.0 3.2 0.00 0.00 0.00 54 1011.6
20260906072556 22 0 0.0 3.2 0.00 0.00 0.00 54 1011.6
20260906072056 21 0 0.0 3.2 0.00 0.00 0.00 54 1011.6
20260906071613 21 0 0.0 3.2 0.00 0.00 0.00 54 1011.6
20260906071055 21 0 0.0 4.8 0.00 0.00 0.00 55 1011.5
20260906070554 21 352 1.6 4.8 0.00 0.00 0.00 55 1011.5
20260906070106 21 352 0.0 4.8 0.00 0.00 0.00 55 1011.5
20260906065557 21 345 1.6 6.4 0.00 0.00 0.00 55 1011.5
20260906065055 21 0 1.6 6.4 0.00 0.00 0.00 55 1011.6
20260906064602 21 342 3.2 6.4 0.00 0.00 0.00 55 1011.4
20260906064057 21 338 0.0 3.2 0.00 0.00 0.00 54 1011.6
20260906063555 21 0 0.0 1.6 0.00 0.00 0.00 54 1011.6
20260906063057 21 0 0.0 1.6 0.00 0.00 0.00 54 1011.6
20260906062559 21 0 0.0 1.6 0.00 0.00 0.00 53 1011.7
20260906062055 21 0 0.0 3.2 0.00 0.00 0.00 52 1011.7
20260906061606 21 0 0.0 3.2 0.00 0.00 0.00 52 1011.8
20260906061055 21 338 0.0 3.2 0.00 0.00 0.00 53 1011.8
20260906060555 21 0 0.0 0.0 0.00 0.00 0.00 52 1011.8
20260906060155 21 0 0.0 0.0 0.00 0.00 0.00 52 1011.8
20260906055555 21 0 0.0 0.0 0.00 0.00 0.00 49 1011.8
20260906055056 21 0 0.0 0.0 0.00 0.00 0.00 49 1011.8
20260906054609 21 0 0.0 1.6 0.00 0.00 0.00 50 1011.8
20260906054056 22 0 0.0 1.6 0.00 0.00 0.00 51 1011.9
20260906053555 22 0 0.0 1.6 0.00 0.00 0.00 51 1011.8
20260906053055 22 0 0.0 1.6 0.00 0.00 0.00 50 1011.9
20260906052556 22 0 0.0 1.6 0.00 0.00 0.00 49 1011.9
20260906052057 22 0 0.0 1.6 0.00 0.00 0.00 49 1012.0
20260906051605 22 0 0.0 1.6 0.00 0.00 0.00 50 1012.0
20260906051055 22 0 0.0 1.6 0.00 0.00 0.00 50 1012.0
20260906050556 22 0 0.0 1.6 0.00 0.00 0.00 49 1012.0
20260906050114 22 0 0.0 4.8 0.00 0.00 0.00 49 1012.0
20260906045555 22 0 0.0 4.8 0.00 0.00 0.00 49 1011.9
20260906045055 22 0 1.6 4.8 0.00 0.00 0.00 49 1011.9
20260906044558 22 340 1.6 4.8 0.00 0.00 0.00 49 1011.9
20260906044057 22 323 0.0 4.8 0.00 0.00 0.00 49 1011.9
20260906043555 22 0 0.0 4.8 0.00 0.00 0.00 48 1012.0
20260906043110 22 0 1.6 4.8 0.00 0.00 0.00 47 1012.0
20260906042556 22 0 0.0 1.6 0.00 0.00 0.00 48 1011.9
20260906042055 22 0 0.0 1.6 0.00 0.00 0.00 47 1012.0
20260906041605 23 26 0.0 1.6 0.00 0.00 0.00 46 1012.0
20260906041054 23 0 0.0 3.2 0.00 0.00 0.00 47 1012.0
20260906040555 23 0 0.0 3.2 0.00 0.00 0.00 48 1011.9
20260906035555 23 0 0.0 3.2 0.00 0.00 0.00 48 1011.8
20260906035056 23 0 0.0 3.2 0.00 0.00 0.00 45 1011.8
20260906034601 23 55 0.0 3.2 0.00 0.00 0.00 45 1011.8
20260906034055 23 0 0.0 0.0 0.00 0.00 0.00 45 1011.8
20260906033555 24 0 0.0 0.0 0.00 0.00 0.00 46 1011.8
20260906033057 24 0 0.0 0.0 0.00 0.00 0.00 45 1011.6
20260906032555 24 0 0.0 0.0 0.00 0.00 0.00 45 1011.6
20260906032056 24 0 0.0 0.0 0.00 0.00 0.00 44 1011.4
20260906031630 24 0 0.0 0.0 0.00 0.00 0.00 42 1011.4
20260906031056 24 0 0.0 3.2 0.00 0.00 0.00 42 1011.4
20260906030556 24 0 0.0 3.2 0.00 0.00 0.00 42 1011.3
20260906030059 24 0 0.0 3.2 0.00 0.00 0.00 41 1011.4
20260906025555 24 0 0.0 8.0 0.00 0.00 0.00 41 1011.4
20260906025056 24 180 1.6 8.0 0.00 0.00 0.00 40 1011.4
20260906024607 24 192 3.2 8.0 0.00 0.00 0.00 41 1011.4
20260906024055 24 186 1.6 9.7 0.00 0.00 0.00 42 1011.5
20260906023556 24 220 1.6 9.7 0.00 0.00 0.00 41 1011.5
20260906023113 25 196 1.6 9.7 0.00 0.00 0.00 42 1011.5
20260906022557 25 190 3.2 9.7 0.00 0.00 0.00 41 1011.4
20260906022056 25 182 3.2 9.7 0.00 0.00 0.00 40 1011.5
20260906021557 25 182 1.6 12.9 0.00 0.00 0.00 39 1011.5
20260906021055 25 302 6.4 14.5 0.00 0.00 0.00 39 1011.5
20260906020555 25 300 8.0 14.5 0.00 0.00 0.00 39 1011.4
20260906020106 25 276 8.0 12.9 0.00 0.00 0.00 41 1011.4
20260906015555 25 267 6.4 12.9 0.00 0.00 0.00 42 1011.4
20260906015055 25 311 3.2 12.9 0.00 0.00 0.00 45 1011.3
20260906014607 25 176 6.4 16.1 0.00 0.00 0.00 44 1011.3
20260906014054 25 247 3.2 16.1 0.00 0.00 0.00 49 1011.3
20260906013555 25 258 4.8 14.5 0.00 0.00 0.00 46 1011.4
20260906013100 25 307 6.4 14.5 0.00 0.00 0.00 49 1011.3
20260906012555 25 271 6.4 14.5 0.00 0.00 0.00 50 1011.4
20260906012056 25 261 4.8 14.5 0.00 0.00 0.00 50 1011.5
20260906011605 25 194 3.2 11.3 0.00 0.00 0.00 51 1011.3
20260906011055 25 254 3.2 17.7 0.00 0.00 0.00 51 1011.3
20260906010555 26 231 6.4 17.7 0.00 0.00 0.00 52 1011.2
20260906005556 26 232 6.4 12.9 0.00 0.00 0.00 48 1011.3
20260906005056 26 167 4.8 12.9 0.00 0.00 0.00 47 1011.2
20260906004608 26 248 3.2 12.9 0.00 0.00 0.00 46 1011.2
20260906004055 26 250 6.4 14.5 0.00 0.00 0.00 48 1011.1
20260906003556 26 189 6.4 16.1 0.00 0.00 0.00 49 1011.2
20260906003101 26 202 4.8 19.3 0.00 0.00 0.00 50 1011.0
20260906002559 26 181 11.3 19.3 0.00 0.00 0.00 49 1011.0
20260906002056 26 199 6.4 16.1 0.00 0.00 0.00 50 1011.0
20260906001559 26 244 8.0 17.7 0.00 0.00 0.00 49 1011.0
20260906001056 27 189 9.7 17.7 0.00 0.00 0.00 47 1011.1
20260906000555 27 223 9.7 17.7 0.00 0.00 0.00 47 1011.1
20260906000110 27 151 6.4 17.7 0.00 0.00 0.00 49 1011.1
20260905235555 27 223 4.8 14.5 0.00 0.00 0.00 49 1011.1
20260905235055 27 183 6.4 14.5 0.00 0.00 0.00 47 1011.2
20260905234602 27 162 4.8 16.1 0.00 0.00 0.00 51 1011.0
20260905234059 27 176 6.4 17.7 0.00 0.00 0.00 48 1011.1
20260905233555 27 270 9.7 17.7 0.00 0.00 0.00 46 1010.9
20260905233105 27 300 9.7 17.7 0.00 0.00 0.00 48 1010.9
20260905232556 27 173 4.8 14.5 0.00 0.00 0.00 46 1011.2
20260905232056 27 279 4.8 16.1 0.00 0.00 0.00 50 1011.1
20260905231619 27 263 8.0 16.1 0.00 0.00 0.00 48 1011.2
20260905231055 27 247 8.0 17.7 0.00 0.00 0.00 48 1011.2
20260905230556 27 217 8.0 17.7 0.00 0.00 0.00 48 1011.2
20260905230112 27 271 11.3 17.7 0.00 0.00 0.00 48 1011.2
20260905225555 28 302 8.0 17.7 0.00 0.00 0.00 50 1011.3
20260905225055 28 130 8.0 19.3 0.00 0.00 0.00 48 1011.2
20260905224559 28 168 6.4 19.3 0.00 0.00 0.00 47 1011.3
20260905224055 28 250 6.4 17.7 0.00 0.00 0.00 47 1011.3
20260905223555 28 199 8.0 17.7 0.00 0.00 0.00 48 1011.5
20260905223106 28 148 4.8 12.9 0.00 0.00 0.00 48 1011.5
20260905222557 28 153 6.4 14.5 0.00 0.00 0.00 48 1011.5
20260905222055 28 0 6.4 19.3 0.00 0.00 0.00 46 1011.6
20260905221628 28 169 6.4 19.3 0.00 0.00 0.00 45 1011.6
20260905221055 28 191 8.0 16.1 0.00 0.00 0.00 43 1011.8
20260905220555 28 216 8.0 16.1 0.00 0.00 0.00 41 1011.7
20260905220103 28 201 8.0 16.1 0.00 0.00 0.00 42 1011.9
20260905215556 28 235 6.4 16.1 0.00 0.00 0.00 42 1011.8
20260905215056 28 262 6.4 17.7 0.00 0.00 0.00 41 1011.8
20260905214603 28 181 6.4 17.7 0.00 0.00 0.00 41 1011.8
20260905214057 28 184 4.8 14.5 0.00 0.00 0.00 42 1012.0
20260905213556 28 185 6.4 17.7 0.00 0.00 0.00 43 1012.0
20260905213130 28 160 8.0 17.7 0.00 0.00 0.00 43 1012.0
20260905212557 28 153 3.2 14.5 0.00 0.00 0.00 45 1012.1
20260905212056 28 234 8.0 14.5 0.00 0.00 0.00 48 1012.1
20260905211605 28 186 8.0 14.5 0.00 0.00 0.00 46 1012.2
20260905211055 28 314 3.2 14.5 0.00 0.00 0.00 49 1012.3
20260905210555 27 288 8.0 14.5 0.00 0.00 0.00 49 1012.3
20260905210111 27 286 4.8 14.5 0.00 0.00 0.00 51 1012.4
20260905205556 27 192 6.4 12.9 0.00 0.00 0.00 52 1012.3
20260905205056 27 163 6.4 19.3 0.00 0.00 0.00 53 1012.4
20260905204612 27 160 3.2 19.3 0.00 0.00 0.00 56 1012.5
20260905204055 27 115 8.0 19.3 0.00 0.00 0.00 56 1012.7
20260905203556 27 214 9.7 16.1 0.00 0.00 0.00 55 1012.7
20260905203104 27 159 8.0 14.5 0.00 0.00 0.00 56 1012.7
20260905202556 27 157 6.4 16.1 0.00 0.00 0.00 55 1012.7
20260905202055 27 196 8.0 16.1 0.00 0.00 0.00 55 1012.7
20260905201607 27 245 6.4 14.5 0.00 0.00 0.00 57 1012.7
20260905201059 27 153 6.4 14.5 0.00 0.00 0.00 56 1012.8
20260905200552 27 223 4.8 12.9 0.00 0.00 0.00 58 1012.8
20260905200127 27 232 6.4 16.1 0.00 0.00 0.00 56 1012.9
20260905195559 27 214 9.7 16.1 0.00 0.00 0.00 57 1013.0
20260905195056 27 208 6.4 17.7 0.00 0.00 0.00 57 1013.1
20260905194607 27 184 4.8 17.7 0.00 0.00 0.00 55 1013.1
20260905194059 27 139 4.8 11.3 0.00 0.00 0.00 57 1013.0
20260905193555 27 266 3.2 14.5 0.00 0.00 0.00 55 1013.1
20260905193104 27 291 4.8 14.5 0.00 0.00 0.00 56 1013.1
20260905192557 27 218 4.8 11.3 0.00 0.00 0.00 57 1013.1
20260905192055 27 202 3.2 11.3 0.00 0.00 0.00 56 1013.2
20260905191602 26 163 3.2 14.5 0.00 0.00 0.00 57 1013.2
20260905191055 26 238 4.8 14.5 0.00 0.00 0.00 56 1013.3
20260905190556 26 150 6.4 16.1 0.00 0.00 0.00 55 1013.4
20260905185555 26 205 3.2 9.7 0.00 0.00 0.00 53 1013.5
20260905185059 26 243 4.8 11.3 0.00 0.00 0.00 55 1013.6
20260905184602 26 202 4.8 11.3 0.00 0.00 0.00 57 1013.5
20260905184059 26 248 4.8 9.7 0.00 0.00 0.00 56 1013.5
20260905183556 27 247 3.2 9.7 0.00 0.00 0.00 55 1013.6
20260905183107 27 275 1.6 6.4 0.00 0.00 0.00 50 1013.6
20260905182631 26 0 1.6 6.4 0.00 0.00 0.00 51 1013.7
20260905182055 26 99 0.0 11.3 0.00 0.00 0.00 52 1013.7
20260905181603 26 55 3.2 11.3 0.00 0.00 0.00 51 1013.8
20260905181053 26 115 1.6 11.3 0.00 0.00 0.00 51 1013.8
20260905180555 26 219 3.2 11.3 0.00 0.00 0.00 51 1013.8
20260905180114 26 78 4.8 9.7 0.00 0.00 0.00 52 1013.8
20260905175556 26 315 0.0 4.8 0.00 0.00 0.00 55 1013.8
20260905175059 25 71 0.0 8.0 0.00 0.00 0.00 53 1013.7
20260905174605 25 0 0.0 8.0 0.00 0.00 0.00 57 1013.7
20260905174055 25 194 3.2 11.3 0.00 0.00 0.00 58 1013.7
20260905173556 25 0 4.8 11.3 0.00 0.00 0.00 58 1013.6
20260905173126 25 229 3.2 6.4 0.00 0.00 0.00 59 1013.7
20260905172555 25 179 0.0 9.7 0.00 0.00 0.00 61 1013.6
20260905172055 25 0 1.6 9.7 0.00 0.00 0.00 61 1013.7
20260905171603 25 0 3.2 9.7 0.00 0.00 0.00 61 1013.7
20260905171056 24 119 3.2 9.7 0.00 0.00 0.00 61 1013.7
20260905170556 24 0 1.6 11.3 0.00 0.00 0.00 64 1013.6
20260905170105 24 200 3.2 11.3 0.00 0.00 0.00 63 1013.7
20260905165555 24 0 1.6 8.0 0.00 0.00 0.00 64 1013.6
20260905165059 24 0 3.2 9.7 0.00 0.00 0.00 63 1013.5
20260905164615 24 71 3.2 9.7 0.00 0.00 0.00 61 1013.5
20260905164057 24 71 0.0 6.4 0.00 0.00 0.00 65 1013.4
20260905163556 24 120 1.6 6.4 0.00 0.00 0.00 65 1013.4
20260905163101 24 0 1.6 6.4 0.00 0.00 0.00 65 1013.3
20260905162556 24 0 0.0 4.8 0.00 0.00 0.00 68 1013.3
20260905162056 23 0 0.0 4.8 0.00 0.00 0.00 68 1013.2
20260905161603 23 0 0.0 4.8 0.00 0.00 0.00 70 1013.2
20260905161055 23 71 0.0 4.8 0.00 0.00 0.00 71 1013.1
20260905160555 23 0 0.0 4.8 0.00 0.00 0.00 71 1013.1
20260905160101 23 99 0.0 4.8 0.00 0.00 0.00 72 1013.1
20260905155555 23 85 0.0 3.2 0.00 0.00 0.00 74 1013.1
20260905155057 22 0 0.0 3.2 0.00 0.00 0.00 74 1013.1
20260905154603 22 0 0.0 3.2 0.00 0.00 0.00 75 1013.2
20260905154056 22 0 0.0 1.6 0.00 0.00 0.00 76 1013.1
20260905153559 22 49 0.0 3.2 0.00 0.00 0.00 76 1013.0
20260905153102 21 0 0.0 3.2 0.00 0.00 0.00 80 1013.0
20260905152555 21 0 0.0 1.6 0.00 0.00 0.00 82 1012.9
20260905152055 20 0 0.0 1.6 0.00 0.00 0.00 84 1012.9
20260905151601 20 0 0.0 3.2 0.00 0.00 0.00 85 1013.0
20260905151055 20 0 0.0 3.2 0.00 0.00 0.00 86 1012.9
20260905150559 20 49 0.0 3.2 0.00 0.00 0.00 87 1013.0
20260905150109 19 0 0.0 3.2 0.00 0.00 0.00 89 1012.9
20260905145555 18 0 0.0 3.2 0.00 0.00 0.00 90 1012.9
20260905145055 18 29 0.0 0.0 0.00 0.00 0.00 90 1012.9
20260905144602 18 0 0.0 0.0 0.00 0.00 0.00 91 1012.9
20260905144055 18 0 0.0 4.8 0.00 0.00 0.00 92 1012.9
20260905143555 17 0 1.6 4.8 0.00 0.00 0.00 92 1012.8
20260905143105 17 350 0.0 0.0 0.00 0.00 0.00 92 1012.7
20260905142555 17 0 0.0 0.0 0.00 0.00 0.00 92 1012.6
20260905142056 17 0 0.0 0.0 0.00 0.00 0.00 93 1012.7
20260905141600 17 0 0.0 0.0 0.00 0.00 0.00 93 1012.8
20260905141055 17 0 0.0 1.6 0.00 0.00 0.00 93 1012.7
20260905140556 17 0 0.0 4.8 0.00 0.00 0.00 93 1012.6
20260905140108 17 341 1.6 4.8 0.00 0.00 0.00 92 1012.6
20260905135556 17 0 0.0 4.8 0.00 0.00 0.00 92 1012.5
20260905135056 17 0 0.0 1.6 0.00 0.00 0.00 92 1012.6
20260905134606 17 352 0.0 1.6 0.00 0.00 0.00 92 1012.4
20260905134055 17 0 0.0 3.2 0.00 0.00 0.00 92 1012.4
20260905133556 17 0 0.0 3.2 0.00 0.00 0.00 92 1012.3
20260905133102 17 0 0.0 0.0 0.00 0.00 0.00 92 1012.2
20260905132555 17 0 0.0 1.6 0.00 0.00 0.00 92 1012.2
20260905132058 17 0 0.0 3.2 0.00 0.00 0.00 92 1012.1
20260905131600 17 0 1.6 3.2 0.00 0.00 0.00 92 1012.1
20260905131056 17 28 0.0 3.2 0.00 0.00 0.00 92 1012.1
20260905130556 17 0 0.0 0.0 0.00 0.00 0.00 92 1012.0
20260905130059 17 0 0.0 4.8 0.00 0.00 0.00 92 1012.1
20260905125555 17 0 0.0 6.4 0.00 0.00 0.00 92 1012.0
20260905125056 17 0 1.6 6.4 0.00 0.00 0.00 92 1012.1
20260905124608 17 351 0.0 4.8 0.00 0.00 0.00 92 1012.1
20260905124055 17 0 0.0 4.8 0.00 0.00 0.00 92 1012.1
20260905123555 17 0 0.0 4.8 0.00 0.00 0.00 92 1012.1
20260905123106 17 352 1.6 4.8 0.00 0.00 0.00 92 1011.9
20260905122556 17 352 0.0 4.8 0.00 0.00 0.00 92 1012.0
20260905122100 17 0 0.0 0.0 0.00 0.00 0.00 92 1012.1
20260905121601 17 0 0.0 1.6 0.00 0.00 0.00 92 1012.1
20260905121100 17 0 0.0 1.6 0.00 0.00 0.00 92 1012.1
20260905120555 17 0 0.0 1.6 0.00 0.00 0.00 92 1012.1
20260905120107 17 0 0.0 3.2 0.00 0.00 0.00 92 1012.1
20260905115556 17 0 0.0 3.2 0.00 0.00 0.00 92 1012.1
20260905115055 17 19 0.0 4.8 0.00 0.00 0.00 92 1012.0
20260905114611 17 0 1.6 4.8 0.00 0.00 0.00 92 1012.1
20260905114056 17 352 1.6 4.8 0.00 0.00 0.00 92 1012.1
20260905113555 17 342 1.6 4.8 0.00 0.00 0.00 92 1012.0
20260905113100 17 0 0.0 0.0 0.00 0.00 0.00 91 1012.0
20260905112556 17 0 0.0 0.0 0.00 0.00 0.00 92 1012.1
20260905112055 17 0 0.0 0.0 0.00 0.00 0.00 92 1012.1
20260905111652 17 0 0.0 4.8 0.00 0.00 0.00 92 1012.1
20260905111057 17 0 0.0 4.8 0.00 0.00 0.00 91 1012.1
20260905110556 17 0 0.0 0.0 0.00 0.00 0.00 91 1012.1
20260905110104 17 0 0.0 0.0 0.00 0.00 0.00 91 1012.0
20260905105555 17 0 0.0 0.0 0.00 0.00 0.00 91 1012.1
20260905105054 17 0 0.0 0.0 0.00 0.00 0.00 91 1012.2
20260905104600 17 0 0.0 0.0 0.00 0.00 0.00 91 1012.2
20260905104054 17 0 0.0 0.0 0.00 0.00 0.00 91 1012.2
20260905103553 17 0 0.0 3.2 0.00 0.00 0.00 91 1012.3
20260905103104 17 0 0.0 3.2 0.00 0.00 0.00 91 1012.2
20260905102556 17 0 0.0 3.2 0.00 0.00 0.00 91 1012.2
20260905102053 17 0 0.0 0.0 0.00 0.00 0.00 91 1012.3
20260905101559 17 0 0.0 3.2 0.00 0.00 0.00 91 1012.3
20260905101054 17 0 0.0 3.2 0.00 0.00 0.00 91 1012.3
20260905100553 17 23 0.0 1.6 0.00 0.00 0.00 91 1012.3